Content
SEND FEEDBACK

Daily
Averages
Monthly
Summary
United States of America

COLDEN, NEW YORK


Home > North America > United States > New York
Elevation: 1025 feet     Latitude: 42 40N     Longitude: 078 41W

WEATHER
 
SELECT A DAY
Number of Records: 220,614;   Date Range: 1/1/95 - 8/28/14
 
SHARE

PRINT THIS DATA

[ ← Previous Day ]
WEATHER ALMANAC - FEBRUARY 13, 2013
[ Next Day → ]
[ °C ]   °F
Weather ElementAverageHighLow
Temperature30.7 °F36 °F (2:54 pm)26.1 °F (9:54 pm)
Dewpoint22.1 °F24.8 °F (7:12 am)21 °F (1:54 am)
Humidity70.9 %84 % (11:54 pm)55 % (2:54 pm)
Barometer29.82 in29.91 in (1:54 am)29.74 in (4:54 pm)
Wind Speed5.1 mph9.2 mph (12:54 pm)
Weather ElementAverage
Visibility9.5 mi
Wind DirectionSW (226.4 °)

Weather ElementTotal
Precipitation---
Heating Degree Days34 (Base 65)
Averaged from 25 records on February 13, 2013
WEATHER CONDITIONS BREAKOUT
WIND DIRECTION BREAKOUT
WEATHER BY HOUR - FEBRUARY 13, 2013
[ °C ]   °F
Local TimeTemperatureDewpointHumidityBarometerVisibilityWind DirectionWind SpeedGust SpeedPrecipitationEventsConditions
1:54 AM30.0 °F21.0 °F69 %29.91 in10.0 miWSW (250°)4.6 mphOvercast
2:54 AM30.9 °F21.9 °F69 %29.90 in10.0 miWSW (250°)4.6 mphOvercast
3:54 AM30.9 °F21.9 °F69 %29.88 in10.0 miWSW (240°)4.6 mphOvercast
4:54 AM30.0 °F24.1 °F79 %29.87 in10.0 miSSW (210°)3.5 mphOvercast
5:54 AM30.9 °F24.1 °F76 %29.88 in10.0 miSSW (210°)8.1 mphOvercast
6:54 AM30.0 °F24.1 °F79 %29.87 in9.0 miSW (220°)4.6 mph0.00 inSnowLight Snow
7:12 AM30.2 °F24.8 °F80 %29.84 in9.0 miSW (220°)6.9 mph0.00 inSnowLight Snow
7:54 AM30.9 °F24.1 °F76 %29.86 in7.0 miSSW (210°)5.8 mph0.00 inSnowLight Snow
8:54 AM30.2 °F23.0 °F75 %29.83 in10.0 miWSW (240°)5.8 mphOvercast
9:50 AM30.2 °F21.2 °F69 %29.81 in10.0 miWest (270°)4.6 mphOvercast
9:54 AM30.9 °F21.0 °F67 %29.84 in10.0 miWSW (240°)4.6 mphOvercast
10:54 AM32.0 °F21.9 °F66 %29.82 in10.0 miSSW (210°)6.9 mphOvercast
11:54 AM32.0 °F21.0 °F64 %29.80 in10.0 miWSW (240°)8.1 mphMostly Cloudy
12:54 PM33.1 °F21.9 °F64 %29.79 in10.0 miWSW (250°)9.2 mphMostly Cloudy
1:54 PM34.0 °F21.9 °F61 %29.76 in10.0 miWNW (290°)4.6 mphScattered Clouds
2:54 PM36.0 °F21.0 °F55 %29.75 in10.0 miCalmScattered Clouds
3:54 PM36.0 °F21.9 °F57 %29.75 in10.0 miWest (280°)5.8 mphMostly Cloudy
4:54 PM34.0 °F21.9 °F61 %29.74 in10.0 miNW (320°)5.8 mphMostly Cloudy
5:54 PM32.0 °F21.9 °F66 %29.75 in10.0 miNorth (350°)6.9 mphMostly Cloudy
6:54 PM28.9 °F21.9 °F75 %29.77 in10.0 miNorth (350°)5.8 mphScattered Clouds
7:54 PM28.0 °F21.0 °F75 %29.78 in10.0 miCalmPartly Cloudy
8:54 PM27.0 °F21.0 °F78 %29.79 in9.0 miSSE (160°)4.6 mphPartly Cloudy
9:54 PM26.1 °F21.0 °F81 %29.80 in9.0 miSouth (190°)3.5 mphScattered Clouds
10:54 PM27.0 °F21.0 °F78 %29.81 in7.0 miSW (230°)4.6 mphScattered Clouds
11:54 PM26.1 °F21.9 °F84 %29.82 in7.0 miSW (230°)3.5 mphScattered Clouds
Hourly data recorded from KBUF, located miles away from Colden, New York







STORIES FROM OUR PARTNERS